EW1979 Weather Reports


time (UTC)temp
C
wind
direction
speed
KPH
gust
KPH
rain 1hr
cm
rain 24hr
cm
rain mn
cm
humidity
%
barometer
mb
20260502214504 21 54 0.0 0.0 0.00 0.00 0.00 48 1017.8
20260502213105 21 36 0.0 0.0 0.00 0.00 0.00 48 1017.9
20260502211511 21 11 0.0 0.0 0.00 0.00 0.00 52 1018.2
20260502210004 21 26 0.0 0.0 0.00 0.00 0.00 48 1018.4
20260502204605 21 51 0.0 0.0 0.00 0.00 0.00 49 1018.6
20260502203102 21 5 0.0 0.0 0.00 0.00 0.00 49 1018.8
20260502201503 20 346 0.0 0.0 0.00 0.00 0.00 49 1019.0
20260502194507 20 68 0.0 0.0 0.00 0.00 0.00 51 1019.2
20260502193003 20 5 0.0 0.0 0.00 0.00 0.00 51 1019.2
20260502191604 20 48 0.0 0.0 0.00 0.00 0.00 52 1019.4
20260502184612 19 5 0.0 0.0 0.00 0.00 0.00 51 1019.7
20260502181611 18 76 0.0 0.0 0.00 0.00 0.00 60 1020.1
20260502161502 16 82 0.0 0.0 0.00 0.00 0.00 69 1021.2
20260502151508 15 75 0.0 0.0 0.00 0.00 0.00 73 1021.0
20260502123008 9 5 0.0 0.0 0.00 0.00 0.00 69 1019.7
20260502114512 8 9 0.0 0.0 0.00 0.00 0.00 68 1018.9
20260502113102 8 10 0.0 0.0 0.00 0.00 0.00 66 1018.8
20260502111605 8 10 0.0 0.0 0.00 0.00 0.00 65 1018.6
20260502104505 8 9 0.0 0.0 0.00 0.00 0.00 62 1018.4
20260502103108 8 10 0.0 0.0 0.00 0.00 0.00 61 1018.5
20260502101502 8 5 0.0 0.0 0.00 0.00 0.00 60 1018.2
20260502100122 8 5 0.0 0.0 0.00 0.00 0.00 59 1018.1
20260502091505 8 5 0.0 0.0 0.00 0.00 0.00 57 1017.2
20260502080108 8 5 0.0 0.0 0.00 0.00 0.00 52 1016.3
20260502063102 9 360 0.0 0.0 0.00 0.00 0.00 58 1016.1
20260502061603 9 5 0.0 0.0 0.00 0.00 0.00 58 1016.2
20260502060006 9 5 0.0 0.0 0.00 0.00 0.00 59 1016.2
20260502054616 9 5 0.0 0.0 0.00 0.00 0.00 58 1016.4
20260502053002 9 5 0.0 0.0 0.00 0.00 0.00 58 1016.1
20260502051507 10 355 0.0 0.0 0.00 0.00 0.00 57 1016.2
20260502050002 10 5 0.0 0.0 0.00 0.00 2.24 56 1016.4
20260502044603 10 9 0.0 0.0 0.00 0.00 2.24 56 1016.2
20260502043108 10 5 0.0 0.0 0.00 0.00 2.24 56 1016.5
20260502041636 10 5 0.0 0.0 0.00 0.00 2.24 57 1016.4
20260502040002 10 10 0.0 0.0 0.00 0.00 2.24 57 1016.2
20260502034504 10 52 0.0 0.0 0.00 0.00 2.24 54 1015.9
20260502033001 10 67 0.0 0.0 0.00 0.00 2.24 51 1015.6
20260502031604 10 19 0.0 0.0 0.00 0.00 2.24 46 1015.4
20260502030002 10 34 0.0 0.0 0.00 0.00 2.24 35 1015.2
20260502023113 10 24 0.0 0.0 0.00 0.00 2.24 22 1015.0
20260502021506 11 49 0.0 0.0 0.00 0.00 2.24 20 1014.7
20260502013003 11 346 0.0 0.0 0.00 0.00 2.24 21 1013.8
20260502011605 11 43 0.0 0.0 0.00 0.00 2.24 21 1013.7
20260502010104 11 14 0.0 0.0 0.00 0.00 2.24 20 1013.5
20260502004503 11 25 0.0 0.0 0.00 0.00 2.24 16 1013.2
20260502003006 11 16 0.0 0.0 0.00 0.00 2.24 13 1012.8
20260502001605 11 360 0.0 0.0 0.00 0.00 2.24 12 1012.5
20260502000105 11 5 0.0 0.0 0.00 0.00 2.24 11 1012.2
20260501233103 12 9 0.0 0.0 0.00 0.00 2.24 5 1011.3
20260501231504 12 63 0.0 0.0 0.00 0.00 2.24 4 1010.9
20260501230004 12 5 0.0 0.0 0.00 0.00 2.24 2 1010.7
20260501224512 12 360 0.0 0.0 0.00 0.00 2.24 1 1010.4
20260501223112 12 360 0.0 0.0 0.00 0.00 2.24 100 1010.4
20260501221625 12 355 0.0 0.0 0.00 0.00 2.21 100 1010.7